Location: Newark
(46.0333°N, 5.8167°E)
Time: 20:10:20
(UTC+00:00)

Envisat - Pass Details

Date: 25 September 2019
Orbit: 764 x 766 km, 98.1° (Epoch: 13 October)

Event Time Altitude Azimuth Distance (km) Brightness Sun altitude
Rises 17:57:02 0° 175° (S) 3,219 6.1 -5.6°
Reaches altitude 10° 17:59:21 10° 179° (S) 2,297 5.4 -6.0°
Maximum altitude 18:04:21 61° 259° (W) 870 3.7 -6.9°
Drops below altitude 10° 18:09:24 10° 340° (NNW) 2,313 5.9 -7.8°
Sets 18:11:45 0° 344° (NNW) 3,243 6.6 -8.2°
